Home   Weather   Bloomington   Past weeks
Flag for USA

Past Weather in Bloomington, Indiana, USA — Yesterday and Last 2 Weeks

Now
73 °F

Sunny.


Feels Like: 77 °F
Forecast: 72 / 48 °F
Wind: N/A

Location: Monroe County Airport

Current Time: Oct 20, 2019 at 6:14:02 pm

Latest Report: Oct 20, 2019 at 4:53 pm


Visibility: 10 mi

Pressure: 29.86 "Hg

Humidity: 43%

Dew Point: 49 °F

Location of BloomingtonLocation

Past Weather in Bloomington — Graph

°F

Bloomington Temperature Yesterday

Maximum temperature yesterday: 71 °F (at 2:53 pm)
Minimum temperature yesterday: 37 °F (at 4:53 am)
Average temperature yesterday: 53 °F

High & Low Weather Summary for the Past Weeks

 TemperatureHumidityPressure
High81 °F (Oct 10, 3:53 pm)97% (Oct 10, 8:53 am)30.24 "Hg (Oct 10, 8:53 am)
Low33 °F (Oct 12, 7:53 am)27% (Oct 7, 4:53 pm)29.76 "Hg (Oct 19, 5:53 pm)
Average55 °F71%30.03 "Hg
* Reported Oct 5 4:53 pm — Oct 20 4:53 pm, Bloomington. Weather by CustomWeather, © 2019

Note: Actual official high and low records may vary slightly from our data, if they occured in-between our weather recording intervals... More about our weather records

Advertising

Bloomington Weather History for the Previous 24 Hours

Scroll right to see more
 ConditionsComfort  
Time TempWeatherWind HumidityBarometerVisibility
4:53 pm
Sun, Oct 20
73 °FSunny.N/A43%29.86 "Hg10 mi
3:53 pm73 °FPassing clouds.7 mph43%29.85 "Hg10 mi
2:53 pm72 °FPassing clouds.N/A44%29.86 "Hg10 mi
1:53 pm72 °FSunny.6 mph44%29.88 "Hg10 mi
12:53 pm71 °FSunny.5 mph45%29.89 "Hg10 mi
11:53 am66 °FSunny.No wind52%29.90 "Hg10 mi
10:53 am63 °FSunny.No wind58%29.90 "Hg10 mi
9:53 am58 °FSunny.No wind75%29.88 "Hg10 mi
8:53 am51 °FSunny.No wind89%29.86 "Hg9 mi
7:53 am53 °FPassing clouds.No wind86%29.85 "Hg9 mi
6:53 am51 °FPassing clouds.No wind89%29.83 "Hg10 mi
5:53 am55 °FPassing clouds.No wind83%29.81 "Hg10 mi
4:53 am54 °FPassing clouds.5 mph90%29.79 "Hg10 mi
3:53 am57 °FPassing clouds.3 mph87%29.78 "Hg10 mi
2:53 am57 °FPassing clouds.No wind81%29.78 "Hg10 mi
1:53 am55 °FPassing clouds.No wind83%29.77 "Hg10 mi
12:53 am53 °FPassing clouds.No wind83%29.79 "Hg10 mi
11:53 pm
Sat, Oct 19
53 °FPassing clouds.No wind83%29.79 "Hg10 mi
10:53 pm51 °FPassing clouds.No wind83%29.79 "Hg10 mi
9:53 pm54 °FPassing clouds.No wind80%29.79 "Hg10 mi
8:53 pm57 °FClear.No wind72%29.79 "Hg10 mi
7:53 pm58 °FPassing clouds.No wind70%29.78 "Hg10 mi
6:53 pm63 °FSunny.No wind58%29.77 "Hg10 mi
Weather by CustomWeather, © 2019

See weather overview